ONEWEB-0039, 45146

Orbit data source: Space-Track

ONEWEB-0039, 45146 is a payload satellite owned by One Web (UK) in LEO that was launched on Thu, 06 Feb 2020 UTC via a SOYUZ-2-1B launch vehicle from the Tyuratam Missile And Space Complex (TTMTR). Payload-class satellites include a variety of spacecraft equipped with specific instruments for various scientific and technological missions. These include communications satellites like Starlink; space stations such as the ISS; scientific satellites like the Hubble; Earth observation satellites from companies like Planet Labs, Umbra, and HawkEye 360; GPS; miniature CubeSats for education and research; and military/defense satellites.

Loading next visibility...
Identifier
45146, 2020-008R
Orbit
LEO
Country
Flag of UKUK
Related business
Manufacturer
One Web
Mission
Operational Commercial Communications
Bus & Motor
ARROW, Unknown motor
Mass
148 kg wet, ~140 kg dry
Launch date (UTC)
2020-02-06 (6 years ago)
Launch vehicle
SOYUZ-2-1B
Launch site
Tyuratam Missile And Space Complex (TTMTR)
Object type
Payload
Rocket body
Debris
Shape & HBR
Trap Box + 2 Pan, 6.7 m
Radar Cross Section
3.464 m², Large (>1 m²)

Expand to show TLE details & history
Last TLE update: 21 hours ago

TLE from 21 hours ago
0 ONEWEB-0039
1 45146U 20008R   25287.18502441  .00000193  00000-0  51627-3 0  9996
2 45146  87.8760  85.3008 0001142  84.1605 275.9652 13.10376684275946
Epoch: 2025-10-14T04:26Z
TLE epoch observation values (Epoch: 2025-10-14T04:26:26.109Z)
Latitude
-0.00005°
Longitude
-4.28507°
Altitude
1,224.5 km
Speed
7.242 km/s
True Right ascension
05h 41m 12s
True Declination
0° 00' 00"
Sunlit
Object was in daylight at epoch
Visualization orbit readout
Latitude
Unknown
Longitude
Unknown
Altitude
Unknown
Speed
Unknown
Apparent Right ascension
Unknown
Apparent Declination
Unknown
Sunlit
N/A
Visualization observer readout
Local Sidereal Time
19:53:50
Azimuth
Unknown
Elevation
Unknown
Doppler factor
Unknown
Orbital elements
Apogee altitude
1,219.69 km
Perigee altitude
1,217.955 km
Semi-major axis
7,596.959 km
Eccentricity
0.00011
Inclination
87.876°
RAAN
85.3008°
Arg. of periapsis
84.1605°
True anomaly
275.95218°
Mean anomaly
275.9652°
Eccentric anomaly
275.95869°
Mean motion
3.27781 °/min
Orbital period
109.83 mins
BSTAR
0.00051627
Loading maneuver chart data...
Computing Atmospheric mass density...
Loading historical data...
Loading historical data...
Loading historical data...
Loading historical data...
Loading historical data...
Loading historical data...
Loading historical data...

Documentation

Showing up to 5 results
|